User: anonymous   Login
Location: *
(35.2348°S, 91.3916°E)
Time: 16:47:03
(UTC+00:00)
Language:

Mayak - Orbit

View from above orbital plane
View from above orbital plane
View from above satellite
View from above satellite

Ground track
Ground track

The orbit data is extracted from the following two-line orbital elements,

1 42830U 17042F   19344.37980089  .00000690  00000-0  73237-4 0  9997
2 42830  97.5483 230.7548 0013724 188.2763 171.8232 14.91997089131013
Epoch (UTC): 10 December 2019 09:06:54
Eccentricity: 0.0013724
inclination: 97.5483°
perigee height: 582 km
apogee height: 601 km
right ascension of ascending node: 230.7548°
argument of perigee: 188.2763°
revolutions per day: 14.91997089
mean anomaly at epoch: 171.8232°
orbit number at epoch: 13101

The dashed part of the orbit path shows where the satellite is in the earth's shadow,  

DLR